Regional Weather Roundup
Issued by NWS

Home | Current Version | Previous Version | Graphics & Text | Print | Product List | Glossary On
Versions: 1 2 3 4 5 6 7 8 9 10 11 12 13 14 15 16 17 18 19 20 21 22 23 24 25 26 27 28 29 30 31 32 33 34 35 36 37 38 39 40 41 42 43 44 45 46 47 48 49 50
000
ASUS45 KTFX 241719
RWRMT
MONTANA HOURLY WEATHER ROUNDUP
NATIONAL WEATHER SERVICE GREAT FALLS MT
1019 AM MST WED DEC 24 2014

NOTE: "FAIR" INDICATES FEW OR NO CLOUDS BELOW 12000 FEET WITH NO
SIGNIFICANT WEATHER AND/OR OBSTRUCTIONS TO VISIBILITY.

* THESE STATIONS ARE NOT UNDER NWS QUALITY CONTROL. THEY DO NOT
   REPORT WEATHER SUCH AS PRECIPITATION OR FOG.

MTZ001>007-043-241800-
WEST OF THE DIVIDE
CITY           SKY/WX    TMP DP  RH WIND       PRES   REMARKS
KALISPELL      LGT SNOW  34  32  92 CALM      29.64F VSB 1/2
MISSOULA       CLOUDY    32  27  82 CALM      29.63F
BUTTE          CLOUDY    30  23  75 NW3       29.67F
MULLAN PASS    HVY SNOW  30  27  89 VRB6      29.58F VSB M1/4 WCI  24
* HAMILTON APT CLOUDY    45  28  51 S14       29.60F
* LIBBY APT    CLOUDY    34  32  92 CALM      29.66F VSB 1
* LINCOLN      N/A       36  29  76 W4G10      N/A
* LOOKOUT PASS N/A       32  32 100 N/A        N/A
* POLSON       N/A       36  36 100 SE1        N/A
* RONAN APT    CLOUDY    37  36  96 N/A        N/A
* SEELEY LAKE  N/A       30  29  96 S1         N/A
* THOMP F APT  CLOUDY    20  14  77 E8G13      N/A   WCI  10
* YAAK HILL    N/A       32  30  92 N/A        N/A
$$

MTZ008-052>055-241800-
SOUTHWEST MONTANA
CITY           SKY/WX    TMP DP  RH WIND       PRES   REMARKS
BOZEMAN        CLOUDY    36  27  70 E5        29.67F WCI  32
DILLON         PTCLDY    32  19  59 SW12      29.71F WCI  23
* W YELLOWSTON PTSUNNY   22  14  71 SE2        N/A
* THREE FORKS  CLOUDY    36  19  50 SW23G30    N/A   WCI  24
* BOULDER HILL N/A       37  20  50 S19G26     N/A   WCI  27
* MONIDA PASS  N/A       18  15  88 SE17G23    N/A   WCI   3
* RAYNOLDS PAS N/A       21   7  55 S19G26     N/A   WCI   6
* WHITEHALL    N/A       33  21  61 SW15G23    N/A   WCI  23
* WISE RIVER   N/A       26  22  85 W5         N/A   WCI  20
$$

MTZ009>010-012-014-046-048-049-054-241800-
EAST SLOPES AND CENTRAL MONTANA
CITY           SKY/WX    TMP DP  RH WIND       PRES   REMARKS
CUT BANK       SNOW      32  30  92 CALM      29.60S VSB 1/2
GREAT FALLS    LGT SNOW  34  32  92 E10       29.61R VSB 3/4  WCI  26
HELENA         CLOUDY    36  27  70 W7        29.60F WCI  30
MALMSTROM AFB  LGT SNOW  32  32 100 NE9       29.63R VSB 1 3/4 WCI  24
* CONRAD       CLOUDY    32  32 100 CALM       N/A
* DEARBORN     N/A       42  29  60 N/A        N/A
* EAST GLACIER N/A       30  30 100 SE5        N/A   WCI  25
* MONARCH      N/A       38  22  53 SW17       N/A   WCI  29
* PENDROY      N/A       31  31 100 S2         N/A
* ROGERS PASS  N/A       34  29  82 SE9G17     N/A   WCI  27
* SWEET GRASS  N/A       31  31 100 W10        N/A   WCI  22
* WHITE SULPH  N/A       39  23  53 S18G27     N/A   WCI  30
$$

MTZ011-013-016-021-035-040-045-047-050-051-241800-
NORTH CENTRAL MONTANA
CITY           SKY/WX    TMP DP  RH WIND       PRES   REMARKS
HAVRE          CLOUDY    36  34  92 SW8       29.60F WCI  30
LEWISTOWN      CLOUDY    43  28  56 W12       29.57R
* N BAR RANCH  CLOUDY    41  30  65 NW5       29.58S
* CHINOOK      CLOUDY    37  34  89 CALM      29.61S
* CHESTER      N/A       33  30  89 NW1        N/A
* DENTON       N/A       37  30  76 N8         N/A   WCI  31
* GEYSER       N/A       39  30  70 N7G16      N/A   WCI  34
* JUDITH GAP   N/A       40  25  55 SW14G19    N/A   WCI  32
* LOMA         N/A       32  32 100 W2         N/A
$$

MTZ017>020-022>027-061-062-241800-
NORTHEAST MONTANA
CITY           SKY/WX    TMP DP  RH WIND       PRES   REMARKS
GLASGOW        CLOUDY    34  28  79 W7        29.57R WCI  28
GLENDIVE       CLOUDY    32  27  82 SW7       29.59F WCI  25
JORDAN         PTSUNNY   36  32  85 W3        29.58S
SIDNEY         CLOUDY    30  27  89 SE6       29.58F WCI  24
WOLF POINT     CLOUDY    34  28  79 SW5       29.57R WCI  29
* BEAVER HILL  N/A       31  26  82 S16        N/A   WCI  20
* CIRCLE       N/A       34  32  92 N/A        N/A
* LINDSAY DVD  N/A       37  31  79 W13        N/A   WCI  29
* NAVAJO       N/A       33  26  75 NW17       N/A   WCI  22
* PLENTYWOOD A CLOUDY    30  27  89 W5        29.52S WCI  25
* POPLAR APT   CLOUDY    34  28  79 N/A       29.57R
* SACO         N/A       36  32  85 W8         N/A   WCI  30
$$

MTZ028>042-056>058-241800-
SOUTHCENTRAL AND SOUTHEAST MONTANA
CITY           SKY/WX    TMP DP  RH WIND       PRES   REMARKS
BAKER          CLOUDY    34  28  79 SW7       29.61F WCI  28
BILLINGS       CLOUDY    37  16  42 SW23G29   29.62F WCI  26
LIVINGSTON     CLOUDY    37  18  46 SW41G60   29.62F WCI  23
MILES CITY     CLOUDY    30  25  82 S12       29.61F WCI  20
* BIG TIMBER A CLOUDY    37  18  46 W10       29.64F WCI  30
* FORSYTH APT  CLOUDY    36  30  79 CALM      29.60F
* LAUREL APT   CLOUDY    39  12  33 SW20G30    N/A   WCI  29
* ROUNDUP APT  CLOUDY    37  19  48 S18G23     N/A   WCI  27
* ALZADA       N/A       33  22  64 SE1        N/A
* HYSHAM       N/A       38  20  48 W9G14      N/A   WCI  32
* LAME DEER    N/A       38  21  50 SW9G19     N/A   WCI  32
* REED POINT   N/A       29  23  78 N/A        N/A
* ROSCOE HILL  N/A       42   8  24 SW11G19    N/A
$$

REGIONAL REPORTS...DAKOTAS
CITY           SKY/WX    TMP DP  RH WIND       PRES   REMARKS
WILLISTON      CLOUDY    28  25  89 S8        29.55F WCI  20
DICKINSON      CLOUDY    32  23  69 SW8       29.57F WCI  25
BEACH          CLOUDY    32  28  85 SW16      29.58F WCI  21
CROSBY         SUNNY     28  28 100 SW13      29.51F WCI  17
TIOGA          CLOUDY    28  28 100 SW14      29.55F WCI  17
WATFORD CITY   PTSUNNY   32  27  82 SW13      29.54F WCI  22
BISMARCK       CLOUDY    25  19  78 SE8       29.67F WCI  16
GRAND FORKS    CLOUDY    27  23  85 SW12      29.75F WCI  16
FARGO          CLOUDY    28  25  89 W8        29.78F WCI  20
BUFFALO SD     PTCLDY    28  21  75 S3        29.56F
RAPID CITY     CLOUDY    25  18  75 CALM      29.68F
$$

REGIONAL REPORTS...WYOMING/IDAHO/WASHINGTON
CITY           SKY/WX    TMP DP  RH WIND       PRES   REMARKS
GILLETTE       PTCLDY    39  19  45 SW18G26   29.64F WCI  30
SHERIDAN       CLOUDY    30  21  69 NW3       29.64S
CODY           PTSUNNY   37  19  48 W8        29.71F WCI  31
YELLOWSTONE LA CLOUDY    19  16  88 CALM      29.88F
SALMON         CLOUDY    28  21  75 S3        29.78F
MULLAN PASS    HVY SNOW  30  27  89 VRB6      29.58S VSB M1/4 WCI  24
SAND POINT     CLOUDY    32  32 100 CALM      29.70F
SPOKANE        CLOUDY    34  32  92 S5        29.69F WCI  29
$$

REGIONAL REPORTS...ALBERTA
CITY           SKY/WX    TMP DP  RH WIND       PRES   REMARKS
CALGARY        PTSUNNY   27  18  69 N2        29.60R
LETHBRIDGE     CLOUDY    36  28  73 SW10      29.58F WCI  29
MEDICINE HAT   PTSUNNY   32  30  92 S9        29.59F WCI  24
EDMONTON       PTSUNNY   28  21  75 W12       29.57R WCI  18
WATERTON GATE  N/A       34  27  76 SW5        N/A   WCI  29
CARDSTON       N/A       34  27  76 N5         N/A   WCI  29
MILK RIVER     N/A       32  28  85 W5         N/A   WCI  27
$$

REGIONAL REPORTS...SASKATCHEWAN
CITY           SKY/WX    TMP DP  RH WIND       PRES   REMARKS
SWIFT CURRENT  SUNNY     28  25  89 W13       29.54R WCI  17
REGINA         PTSUNNY   28  25  89 NW15      29.49S WCI  16
VAL MARIE      N/A       30  27  89 SW3        N/A
ASSINIBOIA     N/A       30  25  82 W17        N/A   WCI  18
CORONACH       N/A       34  27  76 W13        N/A   WCI  25

$$



USA.gov is the U.S. government's official web portal to all federal, state and local government web resources and services.